Weather History for Middlesboro, KY

Change the Weather History Date:

Sunday, October 14, 2012

  Actual Average (KLOZ) Record (KLOZ)
Temperature  
Mean Temperature 63 °F 58 °F  
Max Temperature 73 °F 70 °F 83 °F (1962)
Min Temperature 53 °F 46 °F 25 °F (1988)
Degree Days  
Heating Degree Days 2 8  
Month to date heating degree days 86  
Since 1 July heating degree days 133  
Cooling Degree Days 0 1  
Month to date cooling degree days 16  
Year to date cooling degree days 1183  
Growing Degree Days 13 (Base 50)    
Moisture  
Dew Point 59 °F    
Average Humidity 83    
Maximum Humidity 100    
Minimum Humidity 69    
Precipitation  
Precipitation 0.12 in 0.10 in 2.04 in (1970)
Month to date precipitation 1.33  
Year to date precipitation 37.38  
Sea Level Pressure  
Sea Level Pressure 30.08 in    
Wind  
Wind Speed 3 mph (South)    
Max Wind Speed 16 mph    
Max Gust Speed 23 mph    
Visibility 10 miles    
Events Rain    
T = Trace of Precipitation, MM = Missing Value Source: NWS Daily Summary

Daily Weather History Graph

Daily Weather History Graph

Search for Another Location

Airport:

Trip Planner

Search our weather history database for the weather conditions in past years. The results will help you decide how hot, cold, wet, or windy it might be!

Date:

Astronomy

Oct. 14, 2012 Rise Set
Actual Time 6:41 AM CDT 5:59 PM CDT
Civil Twilight 6:15 AM CDT 6:25 PM CDT
Nautical Twilight 5:45 AM CDT 6:55 PM CDT
Astronomical Twilight 5:15 AM CDT 7:25 PM CDT
Moon 5:40 AM CDT (10/14) 5:18 PM CDT (10/14)
Length of Visible Light 12h 09m
Length of Day
11h 17m
Waning Crescent, 1% of the Moon is Illuminated
Oct 14
Waning Crescent
Oct 15
New
Oct 21
First Quarter
Oct 29
Full
Nov 6
Last Quarter

Hourly Weather History & Observations

Time (CDT) Temp. Dew Point Humidity Pressure Visibility Wind Dir Wind Speed Gust Speed Precip Events Conditions
12:15 AM 60.8 °F 55.4 °F 82% 30.19 in 10.0 mi Calm Calm - N/A   Clear
12:35 AM 57.2 °F 55.4 °F 94% 30.19 in 10.0 mi Calm Calm - N/A   Clear
12:55 AM 57.2 °F 53.6 °F 88% 30.19 in 10.0 mi Calm Calm - N/A   Clear
1:15 AM 59.0 °F 53.6 °F 82% 30.19 in 10.0 mi Calm Calm - N/A   Clear
1:35 AM 59.0 °F 53.6 °F 82% 30.18 in 10.0 mi Calm Calm - N/A   Clear
1:55 AM 55.4 °F 55.4 °F 100% 30.17 in 10.0 mi Calm Calm - N/A   Clear
2:15 AM 55.4 °F 53.6 °F 94% 30.17 in 10.0 mi Calm Calm - N/A   Clear
2:35 AM 53.6 °F 53.6 °F 100% 30.16 in 10.0 mi Calm Calm - N/A   Clear
2:55 AM 53.6 °F 53.6 °F 100% 30.16 in 10.0 mi Calm Calm - N/A   Clear
3:15 AM 53.6 °F 53.6 °F 100% 30.16 in 10.0 mi Calm Calm - N/A   Clear
3:35 AM 53.6 °F 53.6 °F 100% 30.16 in 10.0 mi Calm Calm - N/A   Clear
3:55 AM 53.6 °F 53.6 °F 100% 30.16 in 10.0 mi Calm Calm - N/A   Clear
4:15 AM 53.6 °F 51.8 °F 94% 30.16 in 10.0 mi Calm Calm - N/A   Clear
4:35 AM 53.6 °F 51.8 °F 94% 30.16 in 10.0 mi Calm Calm - N/A   Clear
4:55 AM 53.6 °F 51.8 °F 94% 30.16 in 10.0 mi SE 3.5 mph - N/A   Clear
5:15 AM 53.6 °F 51.8 °F 94% 30.16 in 10.0 mi East 3.5 mph - N/A   Clear
5:35 AM 53.6 °F 51.8 °F 94% 30.16 in 10.0 mi ESE 3.5 mph - N/A   Clear
5:55 AM 55.4 °F 51.8 °F 88% 30.16 in 10.0 mi Calm Calm - N/A   Clear
6:15 AM 53.6 °F 51.8 °F 94% 30.17 in 10.0 mi Calm Calm - N/A   Clear
6:35 AM 55.4 °F 51.8 °F 88% 30.17 in 10.0 mi NE 3.5 mph - N/A   Mostly Cloudy
6:55 AM 55.4 °F 51.8 °F 88% 30.17 in 10.0 mi Calm Calm - N/A   Overcast
7:15 AM 57.2 °F 53.6 °F 88% 30.17 in 10.0 mi East 3.5 mph - N/A   Overcast
7:35 AM 59.0 °F 53.6 °F 82% 30.17 in 10.0 mi Calm Calm - N/A   Overcast
7:55 AM 59.0 °F 53.6 °F 82% 30.17 in 10.0 mi Calm Calm - N/A   Overcast
8:15 AM 60.8 °F 53.6 °F 77% 30.18 in 10.0 mi Calm Calm - N/A   Overcast
8:35 AM 60.8 °F 53.6 °F 77% 30.18 in 10.0 mi Calm Calm - N/A   Overcast
8:55 AM 60.8 °F 53.6 °F 77% 30.18 in 10.0 mi Calm Calm - N/A   Overcast
9:15 AM 62.6 °F 55.4 °F 77% 30.19 in 10.0 mi Calm Calm - N/A   Overcast
9:35 AM 62.6 °F 53.6 °F 72% 30.19 in 10.0 mi Calm Calm - N/A   Overcast
9:55 AM 62.6 °F 53.6 °F 72% 30.18 in 10.0 mi SSE 6.9 mph - N/A   Overcast
10:15 AM 62.6 °F 55.4 °F 77% 30.18 in 10.0 mi South 3.5 mph - N/A   Overcast
10:35 AM 64.4 °F 55.4 °F 73% 30.18 in 10.0 mi SSW 5.8 mph - N/A   Overcast
10:55 AM 66.2 °F 57.2 °F 73% 30.16 in 10.0 mi South 6.9 mph 16.1 mph N/A   Scattered Clouds
11:15 AM 66.2 °F 57.2 °F 73% 30.16 in 10.0 mi South 10.4 mph 19.6 mph N/A   Clear
11:35 AM 66.2 °F 57.2 °F 73% 30.15 in 10.0 mi SSW 5.8 mph - N/A   Clear
11:55 AM - - N/A% 30.15 in - South 5.8 mph - N/A   Unknown
12:15 PM 68.0 °F 60.8 °F 78% 30.14 in 10.0 mi Calm Calm - N/A   Overcast
12:35 PM 69.8 °F 60.8 °F 73% 30.12 in 10.0 mi Calm Calm - N/A   Overcast
12:55 PM 71.6 °F 62.6 °F 73% 30.10 in 10.0 mi South 8.1 mph - N/A   Mostly Cloudy
1:15 PM 71.6 °F 60.8 °F 69% 30.08 in 10.0 mi South 10.4 mph 19.6 mph N/A   Mostly Cloudy
1:35 PM 71.6 °F 62.6 °F 73% 30.07 in 10.0 mi SSW 10.4 mph 16.1 mph N/A   Mostly Cloudy
1:55 PM 73.4 °F 62.6 °F 69% 30.05 in 10.0 mi South 8.1 mph - N/A   Mostly Cloudy
2:15 PM 71.6 °F 62.6 °F 73% 30.04 in 10.0 mi South 4.6 mph 18.4 mph N/A   Mostly Cloudy
2:35 PM 71.6 °F 62.6 °F 73% 30.03 in 10.0 mi SSW 10.4 mph 20.7 mph N/A   Scattered Clouds
2:55 PM 71.6 °F 62.6 °F 73% 30.01 in 10.0 mi South 11.5 mph 17.3 mph N/A   Scattered Clouds
3:15 PM 73.4 °F 62.6 °F 69% 30.01 in 10.0 mi SSW 3.5 mph - N/A   Mostly Cloudy
3:35 PM 73.4 °F 62.6 °F 69% 30.00 in 10.0 mi SSW 5.8 mph - N/A   Overcast
3:55 PM 73.4 °F 62.6 °F 69% 29.99 in 10.0 mi SSW 11.5 mph 19.6 mph N/A   Scattered Clouds
4:15 PM 71.6 °F 62.6 °F 73% 29.97 in 10.0 mi SSW 16.1 mph 23.0 mph N/A   Scattered Clouds
4:35 PM 71.6 °F 62.6 °F 73% 29.98 in 10.0 mi SSW 8.1 mph 16.1 mph N/A   Scattered Clouds
4:55 PM 71.6 °F 62.6 °F 73% 29.98 in 10.0 mi SW 11.5 mph 21.9 mph N/A   Scattered Clouds
5:15 PM 71.6 °F 62.6 °F 73% 29.97 in 10.0 mi South 8.1 mph 19.6 mph N/A   Scattered Clouds
5:35 PM 71.6 °F 62.6 °F 73% 29.97 in 10.0 mi South 11.5 mph - N/A   Scattered Clouds
5:55 PM 71.6 °F 62.6 °F 73% 29.97 in 10.0 mi SW 5.8 mph 18.4 mph N/A   Scattered Clouds
6:15 PM 71.6 °F 62.6 °F 73% 29.96 in 10.0 mi SSW 9.2 mph 20.7 mph N/A   Clear
6:35 PM 71.6 °F 62.6 °F 73% 29.96 in 10.0 mi WSW 6.9 mph 23.0 mph N/A   Scattered Clouds
6:55 PM 69.8 °F 62.6 °F 78% 29.96 in 10.0 mi SSW 8.1 mph - N/A   Mostly Cloudy
7:15 PM 69.8 °F 62.6 °F 78% 29.96 in 10.0 mi SSW 11.5 mph 23.0 mph N/A   Mostly Cloudy
7:35 PM 69.8 °F 64.4 °F 83% 29.96 in 10.0 mi South 10.4 mph 19.6 mph N/A   Overcast
7:55 PM 68.0 °F 64.4 °F 88% 29.96 in 7.0 mi SSW 6.9 mph 19.6 mph N/A   Drizzle
8:15 PM 68.0 °F 64.4 °F 88% 29.95 in 10.0 mi South 10.4 mph 16.1 mph N/A   Overcast
8:35 PM 68.0 °F 64.4 °F 88% 29.95 in 10.0 mi South 11.5 mph 17.3 mph N/A   Overcast
8:55 PM 69.8 °F 64.4 °F 83% 29.94 in 10.0 mi South 11.5 mph 17.3 mph N/A   Mostly Cloudy
9:15 PM 69.8 °F 64.4 °F 83% 29.95 in 10.0 mi SW 10.4 mph 18.4 mph N/A   Scattered Clouds
9:35 PM 69.8 °F 64.4 °F 83% 29.95 in 10.0 mi South 9.2 mph 18.4 mph N/A   Mostly Cloudy
9:55 PM 69.8 °F 64.4 °F 83% 29.95 in 10.0 mi SW 3.5 mph - N/A   Overcast
10:15 PM 69.8 °F 64.4 °F 83% 29.94 in 10.0 mi SSW 6.9 mph - N/A Rain Light Rain
10:35 PM 68.0 °F 64.4 °F 88% 29.94 in 7.0 mi SSW 4.6 mph - N/A Rain Heavy Rain
10:55 PM 66.2 °F 66.2 °F 100% 29.93 in 7.0 mi SSW 4.6 mph - 0.03 in Rain Heavy Rain
11:15 PM 66.2 °F 66.2 °F 100% 29.92 in 10.0 mi SW 4.6 mph - 0.09 in Rain Rain
11:35 PM 66.2 °F 66.2 °F 100% 29.91 in 10.0 mi Calm Calm - 0.09 in Rain Rain
11:55 PM 66.2 °F 64.4 °F 94% 29.91 in 10.0 mi Calm Calm - N/A Rain Rain